Flag for Australia Weather past 2 weeks in Wagga Wagga, New South Wales, Australia

Now
79 °F

Clear.


Feels Like: 78 °F
Forecast: 72 / 97 °F
Wind: 5 mph from Southwest

Location: Wagga Airport

Current Time: Dec 21, 2014 at 10:10:17 PM

Latest Report: Dec 21, 2014 at 9:00 PM


Visibility: N/A

Pressure: 29.86 "Hg

Humidity: 24%

Dew point: 39 °F

Location of Wagga WaggaLocation

Historic Weather in Wagga Wagga — Graph

°F

Wagga Wagga temperature yesterday

Maximum temperature yesterday: 86 °F (at 4:00 PM)
Minimum temperature yesterday: 54 °F (at 4:00 AM)
Average temperature yesterday: 70 °F

Past Weeks' High & Low Weather Summary

 TemperatureHumidityPressure
High95 °F (Dec 15, 4:00 PM)94% (Dec 7, 2:00 AM)30.09 "Hg (Dec 7, 2:00 AM)
Low52 °F (Dec 17, 6:00 AM)2% (Dec 16, 4:00 PM)29.42 "Hg (Dec 16, 5:00 PM)
Average73 °F42%29.81 "Hg
* Reported Dec 6 9:00 PM — Dec 21 9:00 PM, Wagga Wagga, Weather by CustomWeather, © 2014

Note: Actual official high and low records may vary slightly from our data, if they occured in-between our weather recording intervals... More about our weather records

Advertising

Wagga Wagga weather history for previous 24 hours

 ConditionsComfort  
Time TempWeatherWind HumidityBarometerVisibility
9:00 PM
Dec 21
79 °FClear.5 mph24%29.86 "HgN/A
8:00 PM86 °FSunny.3 mph19%29.86 "HgN/A
7:00 PM91 °FSunny.3 mph17%29.83 "HgN/A
6:00 PM93 °FSunny.6 mph11%29.83 "HgN/A
5:00 PM95 °FPassing clouds.8 mph11%29.86 "HgN/A
4:00 PM93 °FSunny.7 mph13%29.86 "Hg10 mi
3:00 PM91 °FSunny.10 mph16%29.89 "Hg10 mi
2:00 PM90 °FPassing clouds.7 mph20%29.92 "HgN/A
1:00 PM88 °FSunny.10 mph21%29.95 "Hg10 mi
12:00 PM88 °FPassing clouds.8 mph22%29.98 "HgN/A
11:00 AM82 °FPassing clouds.7 mph32%29.98 "HgN/A
10:00 AM79 °FPassing clouds.7 mph39%30.01 "HgN/A
9:00 AM73 °FSunny.10 mph50%30.01 "Hg10 mi
8:00 AM70 °FSunny.10 mph57%30.01 "Hg10 mi
7:00 AM66 °FSunny.5 mph64%29.98 "Hg10 mi
6:00 AM63 °FSunny.7 mph73%29.98 "Hg10 mi
5:00 AM64 °FClear.7 mph68%29.95 "HgN/A
4:00 AM59 °FClear.2 mph68%29.95 "HgN/A
3:00 AM66 °FClear.9 mph49%29.95 "HgN/A
2:00 AM66 °FClear.8 mph43%29.95 "HgN/A
1:00 AM66 °FClear.5 mph46%29.95 "HgN/A
12:00 AM68 °FClear.7 mph40%29.95 "HgN/A
11:00 PM
Dec 20
70 °FClear.1 mph40%29.95 "HgN/A
10:00 PM68 °FClear.6 mph46%29.95 "HgN/A
Weather by CustomWeather, © 2014

See weather overviewHow to use our weather pages